SKW2162 KBHM-KATL

Flight info

Callsign SKW2162
Flight time 0h 30m
Altitude 27000
Route GUMMP DRSDN HOBTT3
Aircraft E75L/M-SDE3GILORVW/S

Departure

Time 2026-05-04 17:04
Airport Birmingham-Shuttlesworth International Airport (KBHM)

Arrival

Time 2026-05-04 17:35
Airport Hartsfield Jackson Atlanta International Airport (KATL)
Time Latitude Longitude Altitude Speed Heading
2026-05-04 16:37 33.56283 -86.75221 627 ft 0 kts 145°
2026-05-04 16:54 33.56289 -86.75226 623 ft 2 kts 143°
2026-05-04 16:55 33.56356 -86.75262 631 ft 3 kts 221°
2026-05-04 16:55 33.56371 -86.75236 633 ft 1 kts 236°
2026-05-04 16:56 33.56372 -86.75234 633 ft 0 kts 236°
2026-05-04 16:59 33.56300 -86.75365 629 ft 14 kts 237°
2026-05-04 17:00 33.56276 -86.75568 624 ft 17 kts 244°
2026-05-04 17:00 33.55962 -86.76111 615 ft 29 kts 249°
2026-05-04 17:01 33.55782 -86.76423 606 ft 25 kts 235°
2026-05-04 17:01 33.55581 -86.76718 602 ft 21 kts 203°
2026-05-04 17:02 33.55525 -86.76982 598 ft 16 kts 331°
2026-05-04 17:02 33.55588 -86.76965 600 ft 1 kts 56°
2026-05-04 17:03 33.55610 -86.76927 600 ft 21 kts 55°
2026-05-04 17:03 33.55739 -86.76703 608 ft 58 kts 54°
2026-05-04 17:03 33.56624 -86.75161 635 ft 160 kts 58°
2026-05-04 17:04 33.57909 -86.72662 1971 ft 185 kts 68°
2026-05-04 17:04 33.58370 -86.69455 3481 ft 215 kts 103°
2026-05-04 17:05 33.56121 -86.67153 5132 ft 244 kts 167°
2026-05-04 17:05 33.52624 -86.66375 7094 ft 263 kts 171°
2026-05-04 17:06 33.49164 -86.64760 9155 ft 273 kts 152°
2026-05-04 17:06 33.47548 -86.63592 10179 ft 277 kts 149°
2026-05-04 17:07 33.44220 -86.60762 11499 ft 308 kts 145°
2026-05-04 17:07 33.43068 -86.59721 11956 ft 315 kts 144°
2026-05-04 17:07 33.40820 -86.57367 12951 ft 327 kts 139°
2026-05-04 17:07 33.39142 -86.55472 13637 ft 336 kts 137°
2026-05-04 17:08 33.37441 -86.53526 14331 ft 341 kts 137°
2026-05-04 17:08 33.33968 -86.49547 15744 ft 350 kts 138°
2026-05-04 17:08 33.32197 -86.47524 16425 ft 354 kts 138°
2026-05-04 17:09 33.30433 -86.45511 17074 ft 358 kts 139°
2026-05-04 17:09 33.28620 -86.43445 17712 ft 362 kts 139°
2026-05-04 17:09 33.26785 -86.41355 18325 ft 366 kts 139°
2026-05-04 17:10 33.23058 -86.37113 19347 ft 374 kts 139°
2026-05-04 17:10 33.17321 -86.30595 20738 ft 385 kts 139°
2026-05-04 17:11 33.15388 -86.28403 21039 ft 393 kts 140°
2026-05-04 17:11 33.13374 -86.26121 21108 ft 406 kts 139°
2026-05-04 17:11 33.09154 -86.21320 21119 ft 431 kts 137°
2026-05-04 17:12 33.07385 -86.18365 21115 ft 447 kts 118°
2026-05-04 17:12 33.06216 -86.10973 21127 ft 466 kts 93°
2026-05-04 17:13 33.05727 -85.99490 21459 ft 437 kts 92°
2026-05-04 17:14 33.05319 -85.89393 21355 ft 401 kts 92°
2026-05-04 17:14 33.05183 -85.86095 20644 ft 397 kts 92°
2026-05-04 17:14 33.04914 -85.79620 19242 ft 385 kts 93°
2026-05-04 17:15 33.04782 -85.76460 18564 ft 379 kts 93°
2026-05-04 17:15 33.04521 -85.70316 17332 ft 367 kts 93°
2026-05-04 17:16 33.04260 -85.64224 17166 ft 367 kts 93°
2026-05-04 17:16 33.03863 -85.55113 17112 ft 367 kts 93°
2026-05-04 17:17 33.03730 -85.52082 17122 ft 367 kts 93°
2026-05-04 17:17 33.03326 -85.43018 17112 ft 367 kts 93°
2026-05-04 17:18 33.03190 -85.39979 17121 ft 368 kts 93°
2026-05-04 17:18 33.02914 -85.33905 17108 ft 367 kts 93°
2026-05-04 17:19 33.02637 -85.27831 17130 ft 367 kts 93°
2026-05-04 17:19 33.03749 -85.22056 17145 ft 365 kts 59°
2026-05-04 17:20 33.06522 -85.17031 16273 ft 359 kts 51°
2026-05-04 17:20 33.09783 -85.12613 14825 ft 350 kts 45°
2026-05-04 17:20 33.11415 -85.10493 14360 ft 344 kts 45°
2026-05-04 17:21 33.14671 -85.06267 14179 ft 344 kts 45°
2026-05-04 17:21 33.17892 -85.02080 14136 ft 345 kts 45°
2026-05-04 17:22 33.19516 -84.99971 14126 ft 345 kts 46°
2026-05-04 17:22 33.21136 -84.97862 14121 ft 345 kts 46°
2026-05-04 17:23 33.26001 -84.91528 13906 ft 345 kts 46°
2026-05-04 17:23 33.27621 -84.89417 13562 ft 344 kts 46°
2026-05-04 17:23 33.30797 -84.85243 12932 ft 339 kts 47°
2026-05-04 17:24 33.32407 -84.83264 12599 ft 337 kts 44°
2026-05-04 17:24 33.37439 -84.77396 12152 ft 333 kts 44°
2026-05-04 17:25 33.39103 -84.75458 12151 ft 334 kts 44°
2026-05-04 17:25 33.42427 -84.71587 12137 ft 334 kts 44°
2026-05-04 17:26 33.45751 -84.67713 12104 ft 331 kts 44°
2026-05-04 17:26 33.50627 -84.62021 10113 ft 322 kts 47°
2026-05-04 17:27 33.52647 -84.57510 9238 ft 296 kts 75°
2026-05-04 17:27 33.53511 -84.52810 8323 ft 284 kts 83°
2026-05-04 17:28 33.53691 -84.48071 8167 ft 285 kts 91°
2026-05-04 17:29 33.54002 -84.41042 7338 ft 285 kts 69°
2026-05-04 17:29 33.55848 -84.34385 5749 ft 279 kts 77°
2026-05-04 17:30 33.57166 -84.27808 4744 ft 255 kts 61°
2026-05-04 17:31 33.59847 -84.25949 4402 ft 216 kts 350°
2026-05-04 17:31 33.62068 -84.29443 3849 ft 166 kts 302°
2026-05-04 17:32 33.63112 -84.31741 3133 ft 153 kts 271°
2026-05-04 17:33 33.63133 -84.35860 2277 ft 175 kts 268°
2026-05-04 17:33 33.63154 -84.37249 1845 ft 157 kts 268°
2026-05-04 17:34 33.63175 -84.40436 1241 ft 105 kts 274°
2026-05-04 17:34 33.63182 -84.41373 1199 ft 122 kts 272°
2026-05-04 17:35 33.63224 -84.43614 1005 ft 36 kts 291°
2026-05-04 17:35 33.63281 -84.43724 1004 ft 0 kts 323°
2026-05-04 17:36 33.63290 -84.43731 1004 ft 3 kts 334°
2026-05-04 17:36 33.63333 -84.43728 1004 ft 9 kts 24°
2026-05-04 17:36 33.63362 -84.43655 1004 ft 8 kts 76°
2026-05-04 17:36 33.63387 -84.43613 1004 ft 10 kts 38°
2026-05-04 17:37 33.63477 -84.43607 1003 ft 17 kts 355°
2026-05-04 17:37 33.63573 -84.43588 1004 ft 10 kts 51°
2026-05-04 17:37 33.63581 -84.43479 1003 ft 18 kts 86°
2026-05-04 17:37 33.63598 -84.43437 1003 ft 4 kts 39°
2026-05-04 17:38 33.63641 -84.43416 1003 ft 9 kts 30°
2026-05-04 17:38 33.63665 -84.43327 1004 ft 15 kts 90°
2026-05-04 17:38 33.63663 -84.43205 1004 ft 9 kts 88°
2026-05-04 17:38 33.63676 -84.43092 1004 ft 20 kts 53°
2026-05-04 17:39 33.63772 -84.43051 1004 ft 2 kts 35°
2026-05-04 17:39 33.63781 -84.43033 1004 ft 3 kts 71°
2026-05-04 17:39 33.63784 -84.43003 1004 ft 1 kts 89°
2026-05-04 17:40 33.63784 -84.42993 1004 ft 0 kts 88°
2026-05-04 17:40 33.63784 -84.42991 1004 ft 0 kts 88°
2026-05-04 17:40 33.63784 -84.42990 1004 ft 0 kts 88°